FW1747 Weather Reports


Display with metric or nautical units.
time (UTC)temp
F
wind
direction
speed
MPH
gust
MPH
rain 1hr
in
rain 24hr
in
rain mn
in
humidity
%
barometer
mb
20260502201544 59 2 0.0 0.0 0.00 0.00 0.00 67 1014.9
20260502200044 59 304 0.0 1.0 0.00 0.00 0.00 68 1015.0
20260502194537 58 89 0.0 0.0 0.00 0.00 0.00 69 1015.4
20260502193038 58 2 0.0 0.0 0.00 0.00 0.00 70 1015.6
20260502191531 56 356 0.0 1.0 0.00 0.00 0.00 72 1015.6
20260502190037 56 294 0.0 3.0 0.00 0.00 0.00 71 1015.6
20260502184524 56 311 0.0 1.0 0.00 0.00 0.00 72 1016.0
20260502183022 55 305 0.0 1.0 0.00 0.00 0.00 73 1016.2
20260502181528 55 34 0.0 0.0 0.00 0.00 0.00 74 1016.3
20260502163016 52 317 0.0 0.0 0.00 0.00 0.00 76 1016.6
20260502161507 52 359 0.0 1.0 0.00 0.00 0.00 76 1016.6
20260502151513 51 1 0.0 0.0 0.00 0.00 0.00 77 1016.4
20260502123104 49 301 0.0 0.0 0.00 0.00 0.00 79 1016.4
20260502121556 49 301 0.0 0.0 0.00 0.00 0.00 79 1016.5
20260502114557 49 349 0.0 0.0 0.00 0.00 0.00 79 1016.4
20260502113056 49 349 0.0 0.0 0.00 0.00 0.00 79 1016.3
20260502111558 50 349 0.0 0.0 0.00 0.00 0.00 78 1016.3
20260502110053 50 352 0.0 0.0 0.00 0.00 0.00 77 1016.4
20260502104549 51 315 0.0 0.0 0.00 0.00 0.00 75 1016.2
20260502103054 51 315 0.0 0.0 0.00 0.00 0.00 74 1016.4
20260502101557 51 314 0.0 0.0 0.00 0.00 0.00 74 1016.3
20260502100108 51 238 0.0 0.0 0.00 0.00 0.00 74 1016.3
20260502071524 53 283 0.0 1.0 0.00 0.00 0.00 70 1017.1
20260502070022 53 36 0.0 0.0 0.00 0.00 0.00 70 1017.4
20260502064521 54 338 0.0 0.0 0.00 0.00 0.00 71 1017.2
20260502063020 54 217 0.0 0.0 0.00 0.00 0.00 72 1017.2
20260502061532 54 285 0.0 0.0 0.00 0.00 0.00 72 1017.1
20260502060022 54 260 0.0 0.0 0.00 0.00 0.00 73 1017.2
20260502054519 53 299 0.0 0.0 0.00 0.00 0.00 73 1017.2
20260502053018 54 240 0.0 0.0 0.00 0.00 0.00 73 1017.2
20260502051523 54 316 0.0 0.0 0.00 0.00 0.00 73 1016.9
20260502050022 54 328 0.0 0.0 0.00 0.00 0.00 73 1016.8
20260502044520 54 313 0.0 0.0 0.00 0.00 0.00 72 1016.6
20260502043021 54 269 0.0 0.0 0.00 0.00 0.00 72 1016.6
20260502041524 54 318 0.0 0.0 0.00 0.00 0.00 71 1016.4
20260502040017 55 67 0.0 1.0 0.00 0.00 0.00 70 1016.3
20260502034515 56 359 0.0 1.0 0.00 0.00 0.00 68 1016.0
20260502033023 56 316 0.0 0.0 0.00 0.00 0.00 67 1015.9
20260502031515 57 248 0.0 1.0 0.00 0.00 0.00 66 1015.7
20260502030014 58 305 0.0 0.0 0.00 0.00 0.00 64 1015.5
20260502024514 59 268 0.0 1.0 0.00 0.00 0.00 63 1015.3
20260502023013 60 262 0.0 1.0 0.00 0.00 0.00 63 1015.1
20260502021513 61 228 0.0 1.0 0.00 0.00 0.00 62 1015.0
20260502020012 62 295 0.0 1.0 0.00 0.00 0.00 62 1015.0
20260502014512 64 208 0.0 5.0 0.00 0.00 0.00 59 1015.0
20260502013013 66 305 0.0 1.0 0.00 0.00 0.00 58 1014.9
20260502011510 67 343 0.0 0.0 0.00 0.00 0.00 57 1014.9
20260502010010 68 262 0.0 0.0 0.00 0.00 0.00 54 1014.7
20260502004510 70 269 0.0 0.0 0.00 0.00 0.00 53 1014.7
20260502003012 71 243 0.0 1.0 0.00 0.00 0.00 53 1014.7
20260502001509 72 287 0.0 1.0 0.00 0.00 0.00 53 1014.6
20260502000014 73 208 0.0 0.0 0.00 0.00 0.00 50 1014.6
20260501234507 72 15 0.0 0.0 0.00 0.00 0.00 51 1014.7
20260501233008 72 326 0.0 0.0 0.00 0.00 0.00 52 1014.8
20260501231505 72 52 0.0 0.0 0.00 0.00 0.00 54 1014.8
20260501230003 72 278 0.0 0.0 0.00 0.00 0.00 50 1015.1
20260501224605 71 1 0.0 0.0 0.00 0.00 0.00 49 1015.2
20260501223104 71 342 0.0 0.0 0.00 0.00 0.00 47 1015.3
20260501221555 70 37 0.0 0.0 0.00 0.00 0.00 51 1015.5
20260501220055 69 345 0.0 0.0 0.00 0.00 0.00 53 1015.7
20260501214555 68 13 0.0 0.0 0.00 0.00 0.00 56 1015.8
20260501213047 67 120 0.0 0.0 0.00 0.00 0.00 58 1016.0
20260501211556 68 60 0.0 1.0 0.00 0.00 0.00 58 1016.1
20260501210048 67 42 0.0 0.0 0.00 0.00 0.00 60 1016.1
20260501204615 67 47 0.0 0.0 0.00 0.00 0.00 58 1016.3
20260501203042 67 269 0.0 0.0 0.00 0.00 0.00 57 1016.5